Location: Newark
(37.6333°N, 5.2500°W)
Time: 01:29:42
(UTC+00:00)

Tiangong 2 - Visible Passes

Search period start: 19 March 2019 00:00
Search period end: 29 March 2019 00:00
Orbit: 379 x 390 km, 42.8° (Epoch: 18 March)

Date Brightness Start Highest point End Pass type
(mag) Time Alt. Az. Time Alt. Az. Time Alt. Az.
19 Mar 3.1 04:28:18 27° NNE 04:28:18 27° NNE 04:30:25 10° ENE visible
19 Mar 1.4 06:01:25 10° WNW 06:04:36 67° NNE 06:07:46 10° ESE visible
20 Mar 1.9 05:03:51 29° NW 05:05:04 45° NNE 05:08:08 10° E visible
21 Mar 3.9 04:07:14 19° ENE 04:07:14 19° ENE 04:08:26 10° ENE visible
21 Mar 1.0 05:39:28 12° WNW 05:42:23 72° SSW 05:45:34 10° ESE visible
22 Mar 1.3 04:42:57 67° NNE 04:42:57 67° NNE 04:46:04 10° ESE visible
23 Mar 1.7 05:18:47 25° W 05:20:05 38° SSW 05:23:04 10° SE visible
24 Mar 3.2 04:22:32 22° SE 04:22:32 22° SE 04:23:48 10° ESE visible
25 Mar 3.0 04:58:43 18° S 04:58:43 18° S 05:00:07 10° SSE visible
28 Mar 3.4 20:06:28 10° SSW 20:07:09 14° S 20:07:09 14° S visible
